Terug naar catalogus

CZ-6A DEB

ActiefPO
NORAD 60643·DEBRIS·🇨🇳 China

Gelanceerd Aug 6, 2024 vanaf Taiyuan Satellite Launch Center

Loading…

Volgende Passages (komende 24 uur)

TLE

VersSource: Space-Track

Epoch: Sep 13, 2026, 17:33 UTC

1 60643U 24140AU  26256.73163151  .00002804  00000-0  78222-3 0  9996
2 60643  88.9659 258.6679 0050936  44.4773 316.0503 14.45295678110541

Volg CZ-6A DEB in realtime met AllMySat

Download on the App Store